Wind_Speed
14 12 12 12 12 12 11 12 13 13 13 13 14 14 15 16 16 16 16 16 16 15 14 13 11 10 10 9 9 8 7 7 7 7 7 6 5 4 4 4 4 4 3
14 12 12 12 12 13 13 13 13 14 14 14 16 16 16 17 16 17 17 17 17 17 16 14 13 12 11 11 10 9 9 8 8 8 8 8 6 6 6 6 5 5 4
13 13 12 12 12 13 13 12 12 13 14 15 16 17 16 16 16 16 17 18 18 18 17 16 15 14 12 12 11 11 10 10 9 9 9 9 8 7 6 6 6 6 6
15 12 11 12 12 13 12 12 12 13 14 15 16 17 17 17 18 18 18 19 19 19 18 17 16 15 14 13 13 12 12 11 11 10 10 10 9 8 7 7 7 7 7
13 12 12 13 13 13 13 13 13 14 15 16 17 17 17 19 19 18 17 19 20 19 19 18 18 17 16 15 14 13 13 13 12 11 11 11 10 9 9 8 7 7 7
13 12 12 13 12 12 13 13 14 14 15 15 15 17 18 19 20 19 19 20 21 20 20 19 19 18 17 16 15 14 14 14 13 12 12 12 11 11 10 9 9 8 8
10 11 11 12 11 11 12 12 12 13 14 15 15 17 19 19 19 20 20 20 21 21 21 20 20 19 18 17 16 15 15 15 14 14 13 13 12 12 11 10 9 8 8
10 10 9 9 9 10 10 10 11 11 13 15 16 17 20 20 19 21 21 21 21 21 22 22 22 20 19 18 17 17 16 16 15 15 15 14 14 13 12 11 10 10 9
10 8 7 8 8 9 9 9 10 11 12 14 15 17 19 20 19 21 22 21 22 21 22 22 22 21 20 19 18 18 17 16 16 16 16 16 15 14 14 13 12 11 11
7 7 6 7 7 7 7 7 8 9 11 13 15 16 17 19 20 21 22 21 20 21 22 23 22 21 20 19 19 18 18 18 17 17 17 17 16 16 16 16 15 14 14
7 6 6 6 7 6 6 7 7 7 8 10 13 14 16 17 19 20 20 21 20 21 21 22 22 21 20 20 20 20 19 19 19 18 18 19 18 18 18 18 17 16 17
6 6 6 7 7 6 5 6 6 6 7 8 10 12 14 16 17 19 19 20 21 21 21 21 21 21 20 20 20 20 20 19 19 19 19 20 20 19 20 20 19 19 19
8 8 7 6 7 5 4 5 6 6 6 7 10 12 13 14 16 18 19 21 21 21 21 22 21 21 20 20 20 20 20 20 20 20 20 20 21 21 22 22 22 22 22
8 9 8 6 5 5 4 4 4 6 6 7 8 11 13 15 17 18 18 20 21 21 21 22 22 21 21 20 20 20 20 20 21 21 22 22 23 23 24 24 24 25 25
8 8 7 7 7 5 4 4 3 4 5 6 7 9 12 14 15 17 18 18 20 20 21 22 22 21 20 19 20 21 21 21 22 23 24 25 25 26 26 26 27 27 28
10 9 8 8 8 8 6 5 4 4 4 6 7 8 10 12 14 15 17 18 18 18 20 20 21 20 20 20 20 20 21 23 24 25 25 26 26 27 28 28 29 30 30
12 11 10 10 10 10 8 7 7 6 6 7 8 9 10 12 13 15 16 16 17 18 18 19 20 20 21 22 22 22 23 24 24 25 25 26 27 28 28 30 31 32 32
14 13 12 10 10 10 10 10 10 9 8 8 9 10 10 11 12 13 14 16 17 17 18 19 20 21 22 23 23 24 24 25 25 25 26 27 28 28 29 31 32 33 34
15 15 14 12 11 11 11 11 12 11 11 10 10 11 11 12 13 15 16 16 17 18 19 20 21 22 23 24 24 25 26 26 26 27 28 28 29 30 32 32 33 34 35
17 16 14 14 14 14 13 13 13 13 13 13 12 12 12 12 14 15 17 17 17 18 20 22 23 24 25 26 26 27 28 28 29 30 31 31 32 32 33 34 35 36 37
17 16 15 15 15 15 15 15 15 14 14 14 14 14 14 15 16 17 18 18 19 20 22 24 25 25 27 28 28 29 29 30 31 32 32 33 33 34 34 35 36 37 38
17 17 16 16 17 17 17 16 16 16 16 16 16 16 16 17 18 18 19 19 20 21 22 23 23 24 26 27 28 29 30 31 32 33 34 35 35 36 37 38 38 39 40
18 19 19 19 18 19 19 19 18 18 18 18 18 18 18 18 19 19 19 20 20 20 21 22 23 24 25 26 27 28 31 33 34 34 35 35 36 38 39 40 41 41 43
20 19 19 19 19 19 19 20 19 19 20 20 20 20 20 21 20 20 20 21 21 21 21 22 23 25 26 26 28 30 31 32 33 35 35 36 38 39 40 41 42 43 44
18 18 18 18 19 19 19 19 20 20 20 21 21 21 21 22 21 21 21 21 22 23 23 23 24 25 26 28 29 30 30 32 33 34 35 37 38 39 40 41 42 43 44
16 17 17 18 18 18 19 19 19 20 21 21 22 23 23 23 23 23 23 24 24 24 24 24 25 26 27 28 30 31 32 34 35 35 37 38 39 41 42 43 43 43 44
Wind_Direction
285 286 290 290 288 282 274 268 262 258 252 245 238 232 230 228 225 224 224 220 217 218 219 223 224 222 222 220 220 223 222 223 220 220 222 224 226 229 226 224 219 206 198
282 286 288 286 284 280 280 268 259 257 250 242 237 231 231 227 226 225 225 222 217 217 219 221 222 221 220 220 221 223 223 224 224 226 226 226 225 222 221 219 220 217 211
283 285 287 285 280 282 279 270 260 253 246 239 236 235 233 226 227 226 224 222 220 219 219 219 220 220 220 221 223 225 224 225 229 232 230 226 224 222 219 218 216 215 217
290 291 289 288 285 280 270 269 263 251 243 239 238 235 229 226 228 227 223 221 217 216 216 219 220 221 222 224 225 227 227 228 230 233 227 223 223 220 217 217 215 216 219
286 290 290 288 284 279 271 264 259 251 241 238 237 232 226 225 227 225 222 219 215 214 217 219 219 220 221 223 225 226 228 229 231 231 226 222 219 221 222 219 218 221 225
280 286 285 283 280 277 275 265 256 248 237 236 238 231 226 226 227 225 223 221 217 216 217 219 220 221 223 225 226 226 228 230 232 229 228 227 223 224 225 224 223 225 230
281 286 283 281 278 277 273 262 252 242 234 233 234 230 226 226 226 224 222 220 218 218 219 220 221 222 224 225 225 227 231 233 231 230 229 226 223 226 227 229 231 236 241
289 289 283 278 278 278 270 264 255 241 234 232 231 228 224 225 224 224 223 221 219 218 220 221 220 221 223 224 226 229 232 232 230 230 230 228 226 228 231 232 235 243 249
291 294 286 278 280 281 272 265 254 240 235 231 227 225 222 221 221 222 220 220 219 219 218 219 219 221 224 226 229 231 231 230 231 231 231 232 233 234 235 236 241 246 250
293 309 301 293 288 288 284 268 264 243 236 232 225 222 221 220 218 217 216 215 217 217 216 215 218 221 223 226 228 229 230 229 231 232 234 236 237 239 241 244 245 249 253
279 297 305 296 285 282 284 272 268 258 241 225 221 221 219 217 214 213 212 214 215 215 215 216 219 223 226 227 229 231 232 233 234 235 237 239 241 245 247 249 250 253 258
268 290 298 294 290 279 274 268 265 259 244 227 219 217 214 211 209 209 210 210 211 212 215 217 220 222 225 229 231 232 233 234 238 240 242 244 246 249 252 253 255 258 262
273 281 294 295 284 288 283 270 262 252 241 228 219 214 211 211 209 210 210 210 209 212 215 217 221 224 227 230 232 231 234 237 240 243 245 247 250 253 256 257 261 263 266
283 283 281 291 277 283 282 283 268 251 239 229 225 219 219 216 213 214 213 214 213 216 219 221 225 228 231 233 234 235 236 240 244 248 250 252 255 258 261 262 265 267 269
282 286 284 294 288 278 277 278 273 255 240 233 229 223 218 213 212 214 215 215 215 220 224 225 229 232 233 234 237 240 242 245 248 251 253 255 259 262 263 265 267 270 271
285 289 289 281 281 281 279 281 276 270 252 239 234 231 226 221 217 216 215 217 218 224 226 225 230 234 236 237 240 244 246 248 250 252 255 257 260 262 264 267 269 271 272
279 283 287 279 269 262 262 269 270 269 259 248 243 241 234 231 223 221 223 222 222 226 227 228 232 236 239 242 245 248 251 253 254 255 257 259 261 263 266 268 271 272 274
280 284 282 277 269 258 256 261 265 263 262 253 247 248 240 238 234 230 227 227 228 232 232 235 238 240 243 245 249 251 254 256 258 260 260 260 262 265 267 270 273 275 277
276 277 274 268 260 254 254 257 259 261 261 259 255 253 250 246 242 241 238 236 235 239 241 243 243 245 248 249 251 255 257 258 259 261 262 264 265 267 269 272 274 277 278
268 269 263 257 258 255 252 254 255 257 260 260 258 255 257 254 247 249 247 245 245 247 248 249 248 248 250 252 255 257 258 260 261 262 264 266 269 272 273 274 276 277 278
264 259 255 254 253 253 253 255 254 256 258 259 257 257 256 256 255 255 253 252 253 254 253 253 253 252 252 256 258 260 262 263 264 266 269 270 272 274 275 277 278 279 279
260 258 254 252 252 253 254 256 256 256 257 258 259 261 260 260 259 258 256 255 257 259 258 258 261 261 262 264 264 265 266 266 268 270 271 273 274 275 276 277 279 280 280
257 256 254 254 256 255 254 256 257 257 258 260 261 262 261 263 262 262 260 260 261 264 265 263 265 267 270 272 272 272 272 272 272 271 271 273 275 276 277 278 280 281 281
255 253 254 256 256 258 257 253 254 256 257 259 262 263 264 265 266 266 266 263 264 266 268 267 268 269 272 274 276 276 276 276 275 275 275 276 278 279 279 280 280 281 282
252 251 251 253 255 258 258 256 253 254 257 260 261 264 265 267 269 268 268 268 269 269 271 272 272 274 275 277 278 279 280 281 280 279 280 281 280 280 281 281 282 283 285
251 250 251 253 255 257 257 258 259 259 260 261 262 263 264 265 265 267 268 269 272 274 274 276 277 277 278 279 280 280 280 282 282 282 283 283 282 283 283 285 286 287 287
Height
5861 5860 5859 5858 5858 5857 5857 5857 5858 5858 5859 5860 5862 5864 5866 5868 5870 5872 5874 5876 5879 5881 5883 5885 5887 5888 5889 5890 5891 5891 5892 5893 5894 5895 5895 5896 5896 5896 5896 5896 5897 5897 5897
5857 5856 5855 5854 5853 5853 5852 5852 5853 5854 5855 5856 5858 5860 5862 5864 5866 5869 5871 5873 5876 5879 5881 5883 5884 5886 5887 5888 5889 5890 5891 5892 5893 5894 5894 5895 5896 5895 5896 5896 5896 5896 5896
5854 5852 5851 5850 5849 5849 5849 5848 5848 5850 5851 5852 5854 5857 5859 5861 5863 5866 5868 5870 5873 5876 5878 5880 5882 5883 5885 5886 5887 5888 5890 5891 5892 5892 5893 5894 5894 5894 5895 5895 5895 5895 5895
5850 5848 5847 5846 5846 5845 5845 5844 5845 5845 5846 5848 5850 5853 5856 5858 5860 5862 5864 5867 5869 5872 5875 5876 5879 5881 5882 5883 5885 5886 5887 5889 5890 5890 5891 5892 5893 5893 5894 5894 5894 5894 5895
5846 5845 5843 5842 5842 5842 5841 5840 5840 5841 5842 5844 5846 5848 5851 5854 5856 5858 5861 5863 5866 5869 5871 5874 5875 5877 5879 5881 5882 5883 5885 5886 5887 5888 5889 5890 5891 5891 5892 5893 5893 5893 5893
5842 5841 5839 5839 5838 5837 5837 5836 5836 5836 5837 5839 5841 5844 5847 5849 5852 5854 5857 5860 5862 5865 5868 5870 5872 5874 5876 5877 5879 5880 5882 5883 5885 5886 5887 5888 5888 5889 5890 5890 5891 5891 5892
5838 5837 5836 5835 5834 5833 5833 5832 5831 5832 5833 5835 5837 5840 5843 5845 5847 5850 5853 5856 5859 5861 5864 5866 5868 5870 5872 5874 5876 5877 5879 5880 5882 5883 5884 5885 5886 5887 5888 5888 5889 5889 5889
5835 5834 5833 5831 5830 5829 5829 5829 5828 5827 5829 5831 5833 5835 5838 5841 5843 5846 5849 5851 5854 5857 5860 5862 5865 5867 5868 5870 5872 5874 5875 5877 5878 5880 5881 5882 5883 5884 5885 5886 5886 5887 5887
5832 5830 5829 5827 5826 5826 5826 5825 5824 5824 5826 5828 5829 5831 5833 5836 5838 5841 5844 5847 5850 5853 5855 5858 5861 5863 5865 5867 5869 5870 5872 5873 5875 5876 5877 5879 5880 5881 5882 5883 5884 5884 5884
5829 5828 5827 5825 5825 5824 5823 5823 5822 5822 5824 5825 5826 5828 5830 5832 5834 5837 5840 5843 5846 5849 5852 5855 5857 5859 5861 5863 5865 5866 5868 5870 5871 5873 5874 5875 5876 5877 5878 5879 5880 5880 5881
5826 5825 5824 5824 5823 5822 5822 5821 5822 5821 5821 5822 5824 5824 5826 5829 5831 5833 5836 5840 5842 5845 5848 5851 5854 5856 5857 5859 5861 5862 5864 5866 5867 5869 5870 5871 5872 5873 5874 5875 5875 5876 5876
5823 5823 5822 5821 5821 5821 5820 5820 5820 5820 5820 5821 5822 5823 5824 5826 5828 5831 5834 5837 5839 5842 5845 5847 5850 5852 5853 5855 5857 5858 5860 5862 5863 5865 5866 5867 5868 5869 5870 5870 5871 5871 5871
5821 5820 5820 5819 5820 5819 5818 5819 5819 5819 5819 5819 5820 5821 5823 5825 5827 5829 5831 5834 5836 5839 5841 5844 5846 5848 5849 5851 5853 5854 5856 5857 5859 5860 5861 5862 5863 5864 5865 5865 5865 5865 5865
5818 5817 5817 5817 5818 5818 5817 5817 5817 5818 5818 5818 5819 5820 5821 5823 5825 5827 5829 5831 5833 5836 5838 5840 5842 5844 5845 5847 5848 5850 5851 5853 5854 5856 5857 5857 5858 5859 5859 5859 5859 5859 5859
5816 5816 5816 5816 5816 5816 5816 5816 5816 5816 5817 5817 5818 5818 5819 5820 5822 5824 5827 5829 5831 5833 5834 5836 5838 5840 5841 5843 5844 5846 5847 5848 5850 5850 5851 5852 5852 5852 5852 5852 5852 5852 5851
5814 5814 5814 5814 5815 5815 5814 5815 5815 5815 5815 5816 5816 5817 5818 5819 5820 5822 5824 5825 5827 5829 5830 5832 5834 5835 5837 5838 5840 5841 5842 5843 5843 5844 5845 5845 5845 5845 5845 5845 5845 5844 5843
5811 5811 5812 5812 5812 5813 5813 5813 5813 5813 5814 5814 5815 5815 5816 5817 5817 5819 5820 5822 5823 5825 5826 5828 5830 5831 5832 5834 5835 5836 5837 5838 5838 5838 5838 5838 5838 5838 5838 5837 5837 5836 5835
5807 5807 5808 5808 5808 5809 5810 5810 5811 5811 5812 5812 5813 5814 5814 5815 5815 5816 5817 5818 5820 5821 5823 5824 5825 5826 5827 5828 5829 5830 5831 5831 5832 5831 5831 5831 5831 5830 5830 5829 5828 5827 5826
5802 5803 5804 5804 5805 5805 5807 5807 5808 5809 5809 5810 5810 5811 5811 5812 5813 5813 5814 5815 5816 5817 5818 5819 5820 5821 5822 5823 5823 5824 5824 5825 5825 5824 5824 5823 5823 5822 5821 5821 5820 5818 5816
5797 5798 5799 5800 5801 5801 5802 5804 5804 5805 5805 5806 5807 5807 5808 5809 5809 5810 5810 5811 5812 5812 5813 5814 5814 5815 5816 5816 5817 5817 5817 5817 5817 5816 5816 5815 5814 5813 5811 5810 5809 5808 5805
5792 5793 5794 5795 5796 5797 5798 5799 5800 5801 5802 5802 5803 5803 5804 5804 5805 5805 5806 5806 5807 5807 5807 5807 5808 5809 5809 5809 5809 5809 5809 5809 5808 5808 5807 5806 5805 5803 5802 5800 5799 5797 5795
5787 5788 5789 5791 5792 5792 5793 5794 5795 5796 5797 5798 5798 5799 5799 5799 5800 5800 5800 5801 5801 5801 5801 5801 5802 5802 5802 5802 5802 5801 5800 5800 5799 5798 5797 5796 5795 5793 5792 5790 5788 5785 5783
5781 5782 5784 5785 5786 5786 5787 5788 5789 5791 5792 5792 5793 5793 5794 5794 5794 5795 5795 5795 5795 5795 5795 5795 5795 5795 5795 5794 5794 5793 5792 5791 5789 5788 5787 5786 5784 5782 5780 5778 5776 5773 5771
5776 5777 5778 5779 5780 5780 5781 5782 5784 5785 5786 5786 5787 5788 5788 5788 5788 5789 5789 5789 5789 5789 5788 5788 5788 5788 5787 5787 5786 5784 5783 5781 5780 5778 5776 5775 5773 5771 5769 5766 5763 5761 5758
5770 5771 5772 5773 5774 5775 5776 5776 5777 5779 5780 5781 5782 5782 5782 5782 5782 5782 5782 5782 5782 5782 5782 5781 5780 5780 5779 5778 5777 5775 5773 5771 5770 5768 5766 5764 5762 5759 5757 5754 5750 5747 5744
5764 5765 5767 5768 5769 5770 5770 5771 5772 5773 5774 5775 5775 5776 5776 5776 5776 5776 5776 5775 5775 5775 5774 5774 5773 5772 5771 5769 5768 5766 5764 5762 5760 5758 5756 5753 5750 5747 5744 5741 5738 5734 5731